Location: Hurstbourne Priors
(51.2000°N, 1.3667°W)
Time: 20:27:58
(UTC+00:00)

Transit 4A - Pass Details

Date: 26 April 2021
Orbit: 870 x 974 km, 66.8° (Epoch: 09 May)

Event Time Altitude Azimuth Distance (km) Brightness Sun altitude
Rises 00:03:01 0° 247° (WSW) 3,608 - -25.3°
Reaches altitude 10° 00:05:46 10° 255° (WSW) 2,651 - -25.3°
Exits shadow 00:05:46 10° 255° (WSW) 2,648 10.1 -25.3°
Maximum altitude 00:11:29 38° 323° (NW) 1,367 9.1 -25.3°
Drops below altitude 10° 00:17:05 10° 31° (NNE) 2,592 11.0 -25.2°
Sets 00:19:46 0° 40° (NE) 3,520 11.8 -25.2°
